05.05.2024;16:00;7
05.05.2024;15:00;6
05.05.2024;14:00;7
05.05.2024;13:00;8
05.05.2024;12:00;7
05.05.2024;11:00;13
05.05.2024;10:00;37
05.05.2024;09:00;37
05.05.2024;08:00;22
05.05.2024;07:00;22
05.05.2024;06:00;20
05.05.2024;05:00;18
05.05.2024;04:00;18
05.05.2024;03:00;22
05.05.2024;02:00;25
05.05.2024;01:00;30
05.05.2024;00:00;42
04.05.2024;23:00;39
04.05.2024;22:00;18
04.05.2024;21:00;27
04.05.2024;20:00;14
04.05.2024;19:00;7
04.05.2024;18:00;6
04.05.2024;17:00;8
04.05.2024;16:00;9
04.05.2024;15:00;5
04.05.2024;14:00;6
04.05.2024;13:00;10
04.05.2024;12:00;16
04.05.2024;11:00;14
04.05.2024;10:00;16
04.05.2024;09:00;14
04.05.2024;08:00;10
04.05.2024;07:00;8
04.05.2024;06:00;8
04.05.2024;05:00;9
04.05.2024;04:00;9
04.05.2024;03:00;9
04.05.2024;02:00;9
04.05.2024;01:00;13
04.05.2024;00:00;13
03.05.2024;23:00;19
03.05.2024;22:00;16
03.05.2024;21:00;13
03.05.2024;20:00;12
03.05.2024;19:00;11
03.05.2024;18:00;14
03.05.2024;17:00;15
